Regional Weather Roundup
Issued by NWS Columbia, SC

Home | Current Version | Previous Version | Text Only | Print | Product List | Glossary On
Versions: 1 2 3 4 5 6 7 8 9 10 11 12 13 14 15 16 17 18 19 20 21 22 23 24 25 26 27 28 29 30 31 32 33 34 35 36 37 38 39 40 41 42 43 44 45 46 47 48 49 50
000
ASUS42 KCAE 281710
RWRCAE
REGIONAL WEATHER ROUNDUP
NATIONAL WEATHER SERVICE COLUMBIA SC
100 PM EDT FRI AUG 28 2015

NOTE: "FAIR" INDICATES FEW OR NO CLOUDS BELOW 12,000 FEET WITH NO
SIGNIFICANT WEATHER AND/OR OBSTRUCTIONS TO VISIBILITY.

NOT ALL STATIONS ARE QUALITY CONTROLLED BY THE NATIONAL
WEATHER SERVICE. USE DATA WITH CAUTION...ESPECIALLY
DEWPOINT OBSERVATIONS.

SCZ001>056-GAZ040-063>065-077-281800-
...UPSTATE SOUTH CAROLINA...

CITY           SKY/WX    TMP DP  RH WIND       PRES   REMARKS
ANDERSON       PTSUNNY   80  65  59 E12       30.21F
LIBERTY        SUNNY     80  64  59 NE6       30.21F
SPARTANBURG    SUNNY     81  61  50 NE6       30.21F
CLEMSON        SUNNY     79  63  57 E8        30.23F
GREENVILLE     MOSUNNY   81  63  54 VRB5      30.23F
GREENWOOD      PTSUNNY   80  66  62 NE12      30.21F
GREER          MOSUNNY   80  62  54 E9        30.21F
ROCK HILL      SUNNY     83  56  39 SE10      30.22F
CHESTER        SUNNY     86  52  30 CALM      30.22S
LAURENS        PTSUNNY   81  70  69 E8        30.20F


...CENTRAL SOUTH CAROLINA...

CITY           SKY/WX    TMP DP  RH WIND       PRES   REMARKS
COLUMBIA APT   PTSUNNY   86  64  47 NE13      30.16F
COLUMBIA OWENS PTSUNNY   84  65  52 NE7       30.18F
DARLINGTON     PTSUNNY   82  61  47 E10       30.19F
FLORENCE       PTSUNNY   83  62  49 E12       30.17F
MCENTIRE ANGB  PTSUNNY   83  67  59 E8        30.17F
ORANGEBURG     PTSUNNY   83  68  60 NE8G18    30.15F
SUMTER SHAW    PTSUNNY   84  67  56 NE8       30.15F
NEWBERRY       PTSUNNY   79  64  61 NE9       30.23S
AIKEN          PTSUNNY   81  64  57 NE12      30.20F
BARNWELL       PTSUNNY   84  72  65 NE6       30.15F
MANNING        FAIR      82  64  54 NE9G17    30.15S
CAMDEN         FAIR      82  59  44 E13       30.19S
LANCASTER      SUNNY     82  55  39 E13       30.21S
WINNSBORO      MOSUNNY   82  61  47 E8G16     30.20S


...EASTERN AND COASTAL SOUTH CAROLINA...

CITY           SKY/WX    TMP DP  RH WIND       PRES   REMARKS
MYRTLE BEACH   PTSUNNY   82  70  65 NE10      30.15S
N MYRTLE BCH   PTSUNNY   84  70  62 N10       30.13S
CONWAY         FAIR      81  70  69 N12       30.15S
MARION         FAIR      81  61  50 CALM      30.17F
HARTSVILLE     FAIR      82  55  39 NE10G16   30.18F
FLORENCE       PTSUNNY   83  62  49 E12       30.17F
DARLINGTON     PTSUNNY   82  61  47 E10       30.19F
CHARLESTON APT PTSUNNY   86  71  60 N9        30.11F
MOUNT PLEASANT PTSUNNY   84  73  70 N5        30.11F
WALTERBORO     CLOUDY    86  70  58 NE8       30.14S
BEAUFORT       CLOUDY    84  72  67 NE9       30.12F


...EASTERN GEORGIA...

CITY           SKY/WX    TMP DP  RH WIND       PRES   REMARKS
AUGUSTA BUSH F CLOUDY    81  69  67 NE6       30.15F
AUGUSTA DANIEL CLOUDY    80  68  66 E6        30.18S
THOMSON        CLOUDY    80  72  78 N5        30.22S
WASHINGTON     PTSUNNY   81  73  78 E7        30.19F
SYLVANIA       CLOUDY    82  75  80 NE7       30.14F
STATESBORO     CLOUDY    81  77  87 NE5       30.13F
SAVANNAH       CLOUDY    81  72  74 N8        30.12S


...SOUTHERN NORTH CAROLINA...

CITY           SKY/WX    TMP DP  RH WIND       PRES   REMARKS
CHARLOTTE      MOSUNNY   81  56  42 VRB5      30.22F
MONROE         SUNNY     81  59  47 NE8       30.21F
WADESBORO      SUNNY     84  53  34 NE9       30.20F
ROCKINGHAM     MOSUNNY   81  59  46 NE5       30.20S
RUTHERFORDTON  SUNNY     80  57  44 SE3       30.23F
ASHEVILLE      MOSUNNY   77  56  48 S6        30.26F

$$


USA.gov is the U.S. government's official web portal to all federal, state and local government web resources and services.